Other Surface Observations
Issued by NWS

Home | Current Version | Previous Version | Text Only | Print | Product List | Glossary On
Versions: 1 2 3 4 5 6 7 8 9 10 11 12 13 14 15 16 17 18 19 20 21 22 23 24 25 26 27 28 29 30 31 32 33 34 35 36 37 38 39 40 41 42 43 44 45 46 47 48 49 50
473
SXUS52 KTAE 261619
OSOTAE
OSOTAE
North Florida/South Alabama/Southwest Georgia Weather Roundup
National Weather Service Tallahassee Florida
1100 AM EST SUN FEB 26 2017

Note: "fair" indicates few or no clouds below 12,000 feet with no
significant weather and/or obstructions to visibility.

!FLZ017-115-028-034-025-261700
...North Florida...

CITY           SKY/WX    TMP DP  RH WIND       PRES   REMARKS
TALLAHASSEE    SUNNY     59  24  26 VRB5      30.25R
APALACHICOLA   SUNNY     62  30  29 E13       30.23R
PERRY          SUNNY     61  27  26 N8        30.25R
CROSS CITY     SUNNY     63  27  25 NE13      30.23S
JACKSONVILLE   SUNNY     62  27  26 NW8       30.24R
$$

!FLZ112-006-005-002-011-261700
...Florida Panhandle...

CITY           SKY/WX    TMP DP  RH WIND       PRES   REMARKS
MARIANNA       SUNNY     57  28  33 NE8       30.25R
BONIFAY        FAIR      59  28  30 NE9       30.24F
PANAMA CITY NW FAIR      59  27  29 NE7       30.22S
TYNDALL AFB    SUNNY     59  29  32 NE7       30.23S
TYND DRONE APT FAIR      59  31  35 E10       30.23R
DE FUNIAK SPR  FAIR      56  25  31 NE9       30.23F
EGLIN AFB      SUNNY     58  24  28 E8        30.23R
DESTIN         SUNNY     59  33  37 E9        30.23S
HURLBURT       SUNNY     58  21  24 E8        30.22R
CRESTVIEW      SUNNY     59  25  27 VRB6      30.24S
PENSACOLA      SUNNY     58  29  33 VRB7      30.23R
$$

!ALZ063-066-261700
...South Alabama...

CITY           SKY/WX    TMP DP  RH WIND       PRES   REMARKS
DOTHAN         SUNNY     53  29  39 E9        30.27S
OZARK CAIRNS   SUNNY     55  28  35 E7        30.23S
FT RUCKER HELI SUNNY     55  24  30 E6        30.24S
RUCKER HELI 3  FAIR      54  23  30 NW5       30.23S
RUCKER HELI 2  FAIR      54  24  31 E7        30.23S
FLORALA APT    SUNNY     56  26  31 SE7       30.25S
ANDALUSIA      SUNNY     58  25  28 E6        30.23S
TROY           SUNNY     52  26  36 MISG      30.25R
EUFALA         FAIR      54  24  31 VRB5      30.24S
MOBILE         SUNNY     56  27  32 E7        30.23S
$$

!GAZ120>161-261700
...Southwest and South Central Georgia...

CITY           SKY/WX    TMP DP  RH WIND       PRES   REMARKS
THOMASVILLE    FAIR      55  30  38 NE6       30.27S
BAINBRIDGE     SUNNY     55  28  35 NE8       30.26S
MOODY AFB      SUNNY     57  23  26 CALM      30.25R
VALDOSTA       SUNNY     58  22  24 N10       30.26R
MOULTRIE         N/A     55  28  35 E3        30.26S
BLAKELY        SUNNY     57  27  30 E5        30.26R
ALBANY         SUNNY     56  24  29 E7        30.28S
TIFTON         FAIR      54  26  33 CALM      30.25S
FITZGERALD     FAIR      56  26  31 CALM      30.28R
CORDELE        FAIR      54  22  28 CALM      30.27S
AMERICUS       FAIR      50  21  32 CALM      30.28R
HOMERVILLE     FAIR      57  30  35 CALM      30.27R
$$

!GMZ750-755-770-775-261700
...Coastal and Buoy Obs...

STATION/POSITION TIME  TEMP    WIND        PRES    VSBY  WAVE
                       AIR SEA DIR/SP/G                  HT/PER
                 (UTC) (F)     (DEG/KT/KT) (MB)    (MI)  (FT/S)
KEATON BEACH     1600   60      50/ 10/ 14 1023.4R
CEDAR KEY        1600   61      60/  9/ 10 1023.7R
C TOWER          1600   57      70/ 18/ 20 1024.1R
APALACHICOLA BUO 1550   63 69   70/ 17/ 19 1022.8R         5/ 6
PANAMA CITY BUOY 1550   64 71              1022.8R         5/ 6
MOBILE BUOY      NOT AVBL
ORANGE BCH AL BU 1550   58 68   80/ 17/ 21 1023.0R         4/ 5
$$




USA.gov is the U.S. government's official web portal to all federal, state and local government web resources and services.